Simultaneous Nadir Overpasses (SNOs) Predictions

Prediction of SNOs between GOES-16 and NOAA-20 Satellite Orbit:

Table of predicted SNOs for the next 14.0 days since TLE Epoch: 4/25/2020
Index Date Time (GOES-16) GOES-16 Lat,Lon NOAA-20 Lat,Lon Distance(km) Time Diff (sec)
1 04/25/2020 18:33:24 0.02, -75.17 -0.44, -77.31 242.79 80
2 04/26/2020 18:17:20 0.02, -75.18 0.59, -72.78 273.89 80
3 04/28/2020 06:39:06 -0.02, -75.17 0.65, -78.04 327.00 80
4 04/29/2020 06:17:41 -0.02, -75.18 -0.38, -73.51 189.68 80
5 04/30/2020 18:39:38 0.01, -75.19 -0.80, -78.82 413.37 80
6 05/01/2020 18:23:33 0.01, -75.20 0.23, -74.29 103.76 80
7 05/03/2020 06:45:20 -0.01, -75.20 0.95, -79.56 496.05 80
8 05/04/2020 06:23:55 -0.01, -75.21 -0.03, -75.02 21.37 80
9 05/06/2020 18:27:07 0.01, -75.25 -0.11, -75.80 63.19 80
10 05/07/2020 18:11:02 0.01, -75.26 0.93, -71.28 454.70 80




NCC Satellite Simultaneous Nadir Overpasses (SNOs) Prediction Service
